This demonstration page uses our WeatherBlox Daily Observations layout. Learn more.

Hourly Observations for March 8, 2019

Temp ( °F °C ) Dew Point ( °F °C ) Humidity (%) Winds ( mph kmh ) Pressure ( in mb ) Visibility ( mi km ) Precip ( " mm )
12:15 am 00:15 Cloudy with Mist and Fog 26 -3.3 24 -4.3 93 93 SSE 9 15 30.09 1019 2 3.218688 0 0
12:35 am 00:35 Cloudy with Mist and Fog 26 -3.5 24 -4.2 95 95 SSE 9 15 30.09 1019 1.5 2.414016 0 0
12:55 am 00:55 Cloudy with Mist and Fog 26 -3.3 25 -4.1 94 94 SSE 9 15 30.09 1019 1.75 2.816352 0 0
1:15 am 01:15 Cloudy with Mist and Fog 26 -3.2 25 -4 94 94 SSE 8 13 30.09 1019 1.5 2.414016 0 0
1:35 am 01:35 Cloudy with Mist and Fog 26 -3.4 25 -4.1 95 95 S 7 11 30.09 1019 1 1.609344 0 0
1:55 am 01:55 Cloudy with Mist and Fog 26 -3.5 24 -4.3 94 94 SSW 7 11 30.09 1019 1 1.609344 0 0
2:15 am 02:15 Cloudy with Mist and Fog 26 -3.4 24 -4.2 94 94 S 8 13 30.09 1019 1.5 2.414016 0 0
2:35 am 02:35 Cloudy with Mist and Fog 26 -3.2 25 -4.1 94 94 S 7 11 30.09 1019 2.5 4.02336 0 0
2:55 am 02:55 Cloudy with Mist and Fog 26 -3.2 25 -4.1 94 94 SSW 7 11 30.06 1018 2.5 4.02336 0 0
3:15 am 03:15 Cloudy with Mist and Fog 26 -3.2 25 -4.1 94 94 SSW 8 13 30.09 1019 2.5 4.02336 0 0
3:35 am 03:35 Cloudy with Mist and Fog 26 -3.2 25 -4.1 94 94 SSW 3 6 30.06 1018 1.5 2.414016 0 0
3:55 am 03:55 Cloudy with Mist and Fog 26 -3.3 24 -4.2 94 94 S 5 7 30.06 1018 1.5 2.414016 0 0
4:15 am 04:15 Cloudy with Mist and Fog 26 -3.5 24 -4.3 94 94 SSW 6 9 30.06 1018 1.5 2.414016 0 0
4:35 am 04:35 Cloudy with Mist and Fog 26 -3.5 24 -4.3 94 94 S 6 9 30.06 1018 1.75 2.816352 0 0
4:55 am 04:55 Cloudy with Mist and Fog 26 -3.5 24 -4.3 94 94 SSW 6 9 30.06 1018 1.5 2.414016 0 0
5:15 am 05:15 Cloudy with Mist and Fog 26 -3.5 24 -4.5 93 93 SSW 6 9 30.06 1018 1.75 2.816352 0 0
5:35 am 05:35 Cloudy with Mist and Fog 26 -3.6 24 -4.6 93 93 S 5 7 30.06 1018 0.75 1.207008 0 0
5:55 am 05:55 Cloudy with Mist and Fog 26 -3.6 24 -4.6 93 93 S 7 11 30.06 1018 1 1.609344 0 0
6:15 am 06:15 Cloudy with Mist and Fog 25 -3.7 24 -4.7 93 93 S 3 6 30.06 1018 0.75 1.207008 0 0
6:35 am 06:35 Cloudy with Mist and Fog 25 -3.9 23 -4.9 93 93 S 5 7 30.06 1018 0.75 1.207008 0 0
6:55 am 06:55 Cloudy with Mist and Fog 25 -3.8 23 -4.8 93 93 Calm 30.06 1018 0.75 1.207008 0 0
7:15 am 07:15 Cloudy with Freezing Fog 25 -3.8 23 -4.8 93 93 SSE 3 6 30.06 1018 0.25 0.402336 0 0
7:35 am 07:35 Cloudy with Freezing Fog 25 -3.7 24 -4.7 93 93 SSE 6 9 30.06 1018 0.25 0.402336 0 0
7:55 am 07:55 Cloudy with Freezing Fog 26 -3.6 24 -4.6 93 93 S 3 6 30.06 1018 0.25 0.402336 0 0
8:15 am 08:15 Cloudy with Freezing Fog 26 -3.6 24 -4.5 94 94 SSE 5 7 30.06 1018 0.25 0.402336 0 0
8:35 am 08:35 Cloudy with Freezing Fog 26 -3.6 24 -4.5 94 94 SSE 5 7 30.06 1018 0.25 0.402336 0 0
8:55 am 08:55 Cloudy with Freezing Fog 26 -3.5 24 -4.4 94 94 SE 5 7 30.06 1018 0.25 0.402336 0 0
9:15 am 09:15 Cloudy with Freezing Fog 25 -3.7 24 -4.7 93 93 S 8 13 30.09 1019 0.5 0.804672 0 0
9:35 am 09:35 Cloudy with Mist and Fog 25 -3.7 24 -4.7 93 93 S 8 13 30.09 1019 0.75 1.207008 0 0
9:55 am 09:55 Cloudy with Mist and Fog N/A N/A N/A S 6 9 N/A 1 1.609344 0 0
10:15 am 10:15 Cloudy with Mist and Fog N/A N/A N/A SSE 5 7 N/A 1 1.609344 0 0
10:35 am 10:35 Cloudy with Mist and Fog N/A N/A N/A SSE 6 9 N/A 2 3.218688 0 0
10:55 am 10:55 Cloudy with Mist and Fog N/A N/A N/A SSE 7 11 N/A 2.5 4.02336 0 0
11:15 am 11:15 Cloudy with Mist and Fog 27 -2.6 26 -3.5 94 94 S 5 7 30.03 1017 2 3.218688 0 0
11:35 am 11:35 Cloudy with Mist and Fog 28 -2.5 26 -3.5 93 93 SE 5 7 30.03 1017 3 4.828032 0 0
11:55 am 11:55 Cloudy with Mist and Fog 28 -2.5 26 -3.4 94 94 SSE 7 11 30.03 1017 4 6.437376 0 0
12:15 pm 12:15 Cloudy with Mist and Fog 28 -2.1 27 -3 94 94 SSE 8 13 30.03 1017 4 6.437376 0 0
12:35 pm 12:35 Cloudy with Mist and Fog 29 -1.9 27 -2.8 94 94 SSE 9 15 30 1016 5 8.04672 0 0
12:55 pm 12:55 Cloudy 30 -1.2 28 -2.5 91 91 SE 9 15 30 1016 7 11.265408 0 0
1:15 pm 13:15 Cloudy 31 -0.8 27 -2.7 87 87 SSE 8 13 29.97 1015 7 11.265408 0 0
1:35 pm 13:35 Cloudy 31 -0.5 27 -2.7 85 85 SSE 10 17 29.91 1013 7 11.265408 0 0
1:55 pm 13:55 Cloudy 32 -0.2 28 -2.5 85 85 SE 9 15 29.91 1013 7 11.265408 0 0
2:15 pm 14:15 Cloudy 32 0.1 28 -2.2 85 85 SSE 9 15 29.91 1013 7 11.265408 0 0
2:35 pm 14:35 Cloudy with Mist and Fog 32 0.1 28 -2 86 86 SE 10 17 29.88 1012 5 8.04672 0 0
2:55 pm 14:55 Cloudy with Mist and Fog 32 0 28 -2 87 87 SE 13 20 29.88 1012 4 6.437376 0 0
3:15 pm 15:15 Cloudy with Mist and Fog 32 0 29 -1.7 88 88 SE 13 20 29.85 1011 4 6.437376 0 0
3:35 pm 15:35 Cloudy with Mist and Fog 32 0 29 -1.6 89 89 SE 12 19 29.85 1011 4 6.437376 0 0
3:55 pm 15:55 Cloudy with Mist and Fog 32 0 29 -1.5 90 90 SE 12 19 29.85 1011 3 4.828032 0 0
4:15 pm 16:15 Cloudy with Mist and Fog 32 0 30 -1.3 91 91 SE 13 20 29.85 1011 3 4.828032 0 0
4:35 pm 16:35 Cloudy with Mist and Fog 32 0 30 -1.2 92 92 SE 13 20 29.83 1010 3 4.828032 0 0
4:55 pm 16:55 Cloudy with Mist and Fog 32 0.1 30 -1.2 91 91 ESE 14 22 29.83 1010 3 4.828032 0 0
5:15 pm 17:15 Cloudy with Mist and Fog 32 -0.1 29 -1.4 91 91 ESE 10 17 29.83 1010 2 3.218688 0 0
5:35 pm 17:35 Cloudy with Mist and Fog 32 -0.1 30 -1.2 92 92 ESE 14 22 29.8 1009 1.75 2.816352 0 0
5:55 pm 17:55 Cloudy with Mist and Fog 32 -0.2 30 -1.2 93 93 ESE 13 20 29.8 1009 1.25 2.01168 0 0
6:15 pm 18:15 Cloudy with Freezing Fog 32 -0.2 30 -1 94 94 ESE 13 20 29.8 1009 0.5 0.804672 0 0
6:35 pm 18:35 Cloudy with Freezing Fog 32 -0.2 30 -1 94 94 ESE 15 24 29.8 1009 0.25 0.402336 0 0
6:55 pm 18:55 Cloudy with Freezing Fog 32 -0.2 30 -1 94 94 ESE 16 26 29.8 1009 0.25 0.402336 0 0
7:15 pm 19:15 Cloudy with Freezing Fog 31 -0.3 30 -1 95 95 ESE 13 20 29.8 1009 0.25 0.402336 0 0
7:35 pm 19:35 Cloudy with Freezing Fog 31 -0.3 30 -1 95 95 ESE 13 20 29.8 1009 0.25 0.402336 0 0
7:55 pm 19:55 Cloudy with Fog 32 0 31 -0.6 96 96 SE 15 24 29.8 1009 0.25 0.402336 0 0
8:15 pm 20:15 Cloudy with Fog 32 0 31 -0.5 96 96 SE 13 20 29.8 1009 0.5 0.804672 0 0
8:35 pm 20:35 Cloudy with Fog 32 0 31 -0.3 98 98 ESE 12 19 29.77 1008 0.5 0.804672 0 0
8:55 pm 20:55 Cloudy with Fog 33 0.3 32 -0.1 97 97 ESE 13 20 29.77 1008 0.5 0.804672 0 0
9:15 pm 21:15 Cloudy with Fog 33 0.3 32 0 98 98 ESE 17 28 29.71 1006 0.5 0.804672 0 0
9:35 pm 21:35 Cloudy with Fog 33 0.5 32 0 96 96 ESE 15 24 29.71 1006 0.5 0.804672 0 0
9:55 pm 21:55 Cloudy with Light Snow 33 0.6 32 0 96 96 ESE 14 22 29.71 1006 0.75 1.207008 0 0
10:15 pm 22:15 Cloudy with Light Snow 33 0.6 32 0 96 96 ESE 15 24 29.68 1005 1 1.609344 0 0
10:35 pm 22:35 Cloudy with Mist and Fog 33 0.6 32 0 96 96 ESE 16 26 29.68 1005 1.25 2.01168 0 0
10:55 pm 22:55 Cloudy with Mist and Fog 33 0.6 32 0 96 96 ESE 15 24 29.65 1004 1.5 2.414016 0 0
11:15 pm 23:15 Cloudy with Mist and Fog 33 0.6 32 0 96 96 ESE 16 26 29.65 1004 1.5 2.414016 0 0
11:35 pm 23:35 Cloudy with Mist and Fog 33 0.6 32 0 96 96 ESE 16 26 29.62 1003 2 3.218688 0 0
11:55 pm 23:55 Cloudy with Mist and Fog 33 0.8 32 0.2 96 96 ESE 15 24 29.62 1003 1.75 2.816352 0 0

Powered by AerisWeather